Weather History for GMFM - May, 2013

Change the Weather History Date:

Tuesday, May 21, 2013

  Actual Average Record
Temperature  
Mean Temperature 52 °F -  
Max Temperature 59 °F - - ()
Min Temperature 46 °F - - ()
Degree Days  
Heating Degree Days 12    
Growing Degree Days 2 (Base 50)    
Moisture  
Dew Point 45 °F    
Average Humidity 80    
Maximum Humidity 94    
Minimum Humidity 51    
Precipitation  
Precipitation 0.43 in - - ()
Sea Level Pressure  
Sea Level Pressure 30.08 in    
Wind  
Wind Speed 8 mph ()    
Max Wind Speed 15 mph    
Max Gust Speed -    
Visibility 3.8 miles    
Events Rain , Hail , Thunderstorm    
T = Trace of Precipitation, MM = Missing Value Source: Averaged Metar Reports

Daily Weather History Graph

Daily Weather History Graph

Search for Another Location

Airport or City:

Trip Planner

Search our weather history database for the weather conditions in past years. The results will help you decide how hot, cold, wet, or windy it might be!

Date:

Astronomy

May. 21, 2013 Rise Set
Actual Time 6:16 AM WEST 8:20 PM WEST
Civil Twilight 5:48 AM WEST 8:48 PM WEST
Nautical Twilight 5:14 AM WEST 9:23 PM WEST
Astronomical Twilight 4:38 AM WEST 9:59 PM WEST
Moon 4:28 PM WEST (5/21) 3:25 AM WEST (5/21)
Length of Visible Light 14h 59m
Length of Day
14h 03m
Waxing Gibbous, 82% of the Moon is Illuminated
May 21
Waxing Gibbous
May 25
Full
May 31
Last Quarter
Jun 8
New
Jun 16
First Quarter

Hourly Weather History & Observations

Time (WEST) Temp. Windchill Dew Point Humidity Pressure Visibility Wind Dir Wind Speed Gust Speed Precip Events Conditions
12:00 AM 50.0 °F - 48.2 °F 94% 30.04 in 3.1 mi NNW 11.5 mph - N/A Rain Rain
1:00 AM 47 °F - 46 °F 93% 30.06 in 3 mi West 9.2 mph - - Rain Light Rain
1:00 AM 48.2 °F - 46.4 °F 93% 30.04 in 3.1 mi West 9.2 mph - N/A Rain Rain
2:00 AM 46.4 °F 42.9 °F 44.6 °F 93% 30.04 in 3.1 mi WSW 6.9 mph - N/A Rain Rain
3:00 AM 48.2 °F - 44.6 °F 87% 30.04 in 3.1 mi West 9.2 mph - N/A   Mostly Cloudy
4:00 AM 47 °F - 45 °F 88% 30.04 in 3 mi SSW 6.9 mph - -   Overcast
4:00 AM 48.2 °F - 44.6 °F 87% 30.01 in 3.1 mi SSW 6.9 mph - N/A   Mostly Cloudy
5:00 AM 48.2 °F - 44.6 °F 87% 30.01 in 3.1 mi WSW 6.9 mph - N/A Rain Rain
6:00 AM 48.2 °F - 44.6 °F 87% 30.01 in 3.1 mi WSW 9.2 mph - N/A   Mostly Cloudy
7:00 AM 48 °F - 46 °F 89% 30.06 in 3 mi WSW 6.9 mph - - Rain Light Rain
7:00 AM 48.2 °F - 46.4 °F 93% 30.01 in 3.1 mi WSW 6.9 mph - N/A Rain Rain
8:00 AM 46.4 °F 42.4 °F 44.6 °F 93% 30.06 in 3.7 mi SW 8.1 mph - N/A   Mostly Cloudy
9:00 AM 48.2 °F - 44.6 °F 87% 30.06 in 3.7 mi SW 10.4 mph - N/A   Mostly Cloudy
10:00 AM 49 °F - 46 °F 84% 30.10 in 2 mi WSW 13.8 mph - - Rain Light Rain
10:00 AM 50.0 °F - 46.4 °F 87% 30.09 in 2.5 mi WSW 13.8 mph - N/A Rain Light Rain
10:21 AM 48.2 °F - 46.4 °F 93% 30.09 in 1.2 mi WSW 9.2 mph - N/A Rain , Hail , Thunderstorm Thunderstorms with Hail
11:00 AM 50.0 °F - 44.6 °F 82% 30.09 in 3.1 mi West 12.7 mph - N/A   Partly Cloudy
12:00 PM 51.8 °F - 46.4 °F 82% 30.09 in 3.1 mi WSW 11.5 mph - N/A   Partly Cloudy
1:00 PM 55 °F - 44 °F 55% 30.09 in 4 mi WSW 9.2 mph - -   Partly Cloudy
1:00 PM 55.4 °F - 42.8 °F 63% 30.09 in 3.7 mi WSW 9.2 mph - N/A   Partly Cloudy
2:00 PM 51.8 °F - 48.2 °F 88% 30.09 in 3.1 mi WNW 10.4 mph - N/A Rain Rain Showers
2:42 PM 51.8 °F - 46.4 °F 82% 30.09 in 3.1 mi NNW 15.0 mph - N/A Rain Rain
2:50 PM 50.0 °F - 46.4 °F 87% 30.09 in 3.1 mi NNW 12.7 mph - N/A Rain , Thunderstorm Thunderstorms and Rain
3:00 PM 50.0 °F - 46.4 °F 87% 30.09 in 3.1 mi NNW 12.7 mph - N/A Rain , Thunderstorm Thunderstorms and Rain
3:45 PM 55.4 °F - 46.4 °F 72% 30.09 in 3.7 mi NW 4.6 mph - N/A   Partly Cloudy
4:00 PM 55 °F - 47 °F 66% 30.09 in 4 mi NW 4.6 mph - - Thunderstorm Light Thunderstorm
4:00 PM 55.4 °F - 46.4 °F 72% 30.09 in 3.7 mi NW 4.6 mph - N/A   Partly Cloudy
5:00 PM 57.2 °F - 48.2 °F 72% 30.09 in 5.0 mi NNW 6.9 mph - N/A   Mostly Cloudy
6:00 PM 57.2 °F - 46.4 °F 67% 30.09 in 5.0 mi NNW 6.9 mph - N/A   Mostly Cloudy
7:00 PM 58 °F - 45 °F 51% 30.09 in 6 mi NNW 4.6 mph - -   Partly Cloudy
7:00 PM 59.0 °F - 44.6 °F 59% 30.12 in 6.2 mi NNW 4.6 mph - N/A   Mostly Cloudy
8:00 PM 55.4 °F - 42.8 °F 63% 30.12 in 6.2 mi NNW 4.6 mph - N/A   Scattered Clouds
9:00 PM 51.8 °F - 44.6 °F 76% 30.15 in 6.2 mi East 2.3 mph - N/A   Scattered Clouds
10:00 PM 50 °F - 45 °F 77% 30.17 in 6 mi ESE 2.3 mph - -   Partly Cloudy
10:00 PM 50.0 °F - 44.6 °F 82% 30.15 in 6.2 mi ESE 2.3 mph - N/A   Scattered Clouds
11:00 PM 50.0 °F - 42.8 °F 76% 30.15 in 6.2 mi Calm Calm - N/A   Scattered Clouds